STARLINK-1122, 44949

Orbit data source: Space-Track

STARLINK-1122, 44949 is a payload satellite owned by SpaceX/Seattle (US) in LEO that was launched on Tue, 07 Jan 2020 UTC via an FALCON 9 launch vehicle from the Air Force Eastern Test Range (AFETR). Payload-class satellites include a variety of spacecraft equipped with specific instruments for various scientific and technological missions. These include communications satellites like Starlink; space stations such as the ISS; scientific satellites like the Hubble; Earth observation satellites from companies like Planet Labs, Umbra, and HawkEye 360; GPS; miniature CubeSats for education and research; and military/defense satellites.

Loading next visibility...
Identifier
44949, 2020-001AM
Orbit
LEO
Last TLE update
4 hours ago
Origin
Manufacturer
SpaceX/Seattle
Mission
Operational Commercial Communications
Bus & Motor
STARLINK, Unknown motor
Mass
260 kg wet, ~248 kg dry
Launch date (UTC)
2020-01-07 (5 years ago)
Launch vehicle
FALCON 9
Launch site
Air Force Eastern Test Range (AFETR)
Object type
Payload
Rocket body
Debris
Shape & HBR
Box + 1 Pan, 8.86 m
Radar Cross Section
13.562 m², Large (>1 m²)

Expand to show TLE details & history

TLE from 4 hours ago
0 STARLINK-1122
1 44949U 20001AM  25186.61615352  .00004844  00000-0  34393-3 0  9999
2 44949  53.0547 355.7727 0000934  98.1301 261.9794 15.06389374302885
Epoch: 2025-07-05T14:47Z
TLE epoch observation values (Epoch: 2025-07-05T14:47:15.664Z)
Latitude
Longitude
-149.89421°
Altitude
548.214 km
Speed
7.589 km/s
True Right ascension
23h 43m 05s
True Declination
0° 00' 00"
Sunlit
Object was in daylight at epoch
Visualization orbit readout
Latitude
41.4265°
Longitude
-11.89358°
Altitude
550.546 km
Speed
7.592 km/s
Apparent Right ascension
13h 20m 29s
Apparent Declination
8° 40' 14"
Sunlit
Object is in daylight
Visualization observer readout
Local Sidereal Time
06:26:51
Azimuth
74.72° E
Elevation
-4.535°
Doppler factor
1
Orbital elements
Apogee altitude
548.162 km
Perigee altitude
546.868 km
Semi-major axis
6,925.652 km
Eccentricity
0.00009
Inclination
53.0547°
RAAN
355.7727°
Arg. of periapsis
98.1301°
True anomaly
Unknown
Mean anomaly
261.9794°
Eccentric anomaly
Unknown
Mean motion
3.76576 °/min
Orbital period
95.6 mins
BSTAR
0.00034393
Loading maneuver chart data...
Loading SW <> Apogee altitude chart data...

STARLINK-1122 Visibility forecast

Observer location: undefined°, undefined°

Span
Click to sort rows by Start time (UTC) header in descending order
Start Az.
Max El. time (UTC)
Max El. Az.
Max El.
End time (UTC)
End Az.
7 mins2025-07-05 20:01:18.493Z325.684° NNW2025-07-05 20:05:18.493Z44.061° NE27.305°2025-07-05 20:08:18.493Z92.449° ESE
5 mins2025-07-05 21:42:18.493Z283.994° WNW2025-07-05 21:44:18.493Z230.879° WSW33.599°2025-07-05 21:47:18.493Z161.335° S
5 mins2025-07-06 13:15:18.493Z182.644° SSW2025-07-06 13:17:18.493Z130.909° SE30.212°2025-07-06 13:20:18.493Z70.511° E
6 mins2025-07-06 14:54:18.493Z272.225° WNW2025-07-06 14:56:18.493Z313.37° NW29.478°2025-07-06 15:00:18.493Z35.548° NE
|